Location: Berlin
(38.3226°N, 75.2177°W)
Time: 06:46:33
(UTC+00:00)

Cosmos 2098 Rocket - Pass Details

Date: 26 October 2020
Orbit: 366 x 1184 km, 82.9° (Epoch: 26 November)

Event Time Altitude Azimuth Distance (km) Brightness Sun altitude
Rises 10:39:26 0° 181° (S) 3,878 7.2 -8.9°
Reaches altitude 10° 10:42:14 10° 180° (S) 2,834 6.6 -8.3°
Maximum altitude 10:48:46 78° 95° (E) 920 4.1 -7.1°
Drops below altitude 10° 10:54:03 10° 10° (N) 2,308 6.0 -6.0°
Sets 10:56:09 0° 9° (N) 3,117 6.6 -5.6°
